TimePDT,TemperatureF,Dew PointF,Humidity,Sea Level PressureIn,VisibilityMPH,Wind Direction,Wind SpeedMPH,Gust SpeedMPH,PrecipitationIn,Events,Conditions,WindDirDegrees,DateUTC
12:53 AM,52.0,25.0,35,30.23,10.0,North,15.0,-,N/A,,Clear,360,2013-03-10 08:53:00
1:53 AM,50.0,25.0,38,30.25,10.0,North,10.4,-,N/A,,Clear,360,2013-03-10 09:53:00
3:53 AM,50.0,24.1,36,30.26,10.0,North,11.5,-,N/A,,Clear,360,2013-03-10 10:53:00
4:53 AM,50.0,23.0,35,30.23,10.0,North,10.4,20.7,N/A,,Clear,350,2013-03-10 11:53:00
5:53 AM,50.0,21.9,33,30.28,10.0,NNW,15.0,20.7,N/A,,Clear,340,2013-03-10 12:53:00
6:53 AM,50.0,21.0,32,30.29,10.0,North,16.1,21.9,N/A,,Clear,350,2013-03-10 13:53:00
7:53 AM,50.0,21.9,33,30.32,10.0,North,17.3,25.3,N/A,,Clear,350,2013-03-10 14:53:00
8:53 AM,52.0,21.9,31,30.34,10.0,NNW,18.4,24.2,N/A,,Clear,340,2013-03-10 15:53:00
9:53 AM,55.9,19.9,25,30.35,10.0,North,19.6,27.6,N/A,,Clear,350,2013-03-10 16:53:00
10:53 AM,57.9,18.0,21,30.35,10.0,North,18.4,26.5,N/A,,Clear,360,2013-03-10 17:53:00
11:53 AM,60.1,16.0,18,30.33,10.0,North,17.3,-,N/A,,Clear,350,2013-03-10 18:53:00
12:53 PM,61.0,15.1,17,30.30,10.0,NNW,3.5,17.3,N/A,,Clear,340,2013-03-10 19:53:00
1:53 PM,64.0,15.1,15,30.27,10.0,NNE,4.6,-,N/A,,Clear,30,2013-03-10 20:53:00
2:53 PM,66.0,17.1,15,30.25,10.0,NNE,8.1,-,N/A,,Clear,30,2013-03-10 21:53:00
3:53 PM,66.9,16.0,14,30.23,10.0,NW,11.5,-,N/A,,Clear,320,2013-03-10 22:53:00
4:53 PM,68.0,16.0,14,30.21,10.0,Calm,Calm,-,N/A,,Clear,0,2013-03-10 23:53:00
5:53 PM,66.9,16.0,14,30.21,10.0,NNW,9.2,-,N/A,,Clear,330,2013-03-11 00:53:00
6:53 PM,64.4,17.6,16,30.19,10.0,Calm,Calm,-,N/A,,Clear,0,2013-03-11 01:53:00
7:53 PM,61.0,24.1,24,30.24,10.0,Calm,Calm,-,N/A,,Clear,0,2013-03-11 02:53:00
8:53 PM,59.0,25.0,27,30.25,10.0,West,3.5,-,N/A,,Clear,270,2013-03-11 03:53:00
9:53 PM,55.9,25.0,30,30.26,10.0,Calm,Calm,-,N/A,,Clear,0,2013-03-11 04:53:00
10:53 PM,54.0,26.1,34,30.27,10.0,Calm,Calm,-,N/A,,Clear,0,2013-03-11 05:53:00
11:53 PM,51.1,27.0,39,30.27,10.0,Calm,Calm,-,N/A,,Clear,0,2013-03-11 06:53:00
12:53 AM,48.0,30.0,50,30.25,10.0,NW,6.9,-,N/A,,Clear,320,2013-03-11 07:53:00